Location: Newark
(7.0858°N, 171.3717°E)
Time: 20:08:19
(UTC+00:00)

Hubble Space Telescope - Visible Passes

Search period start: 26 September 2021 00:00
Search period end: 06 October 2021 00:00
Orbit: 535 x 539 km, 28.5° (Epoch: 26 September)

Date Brightness Start Highest point End Pass type
(mag) Time Alt. Az. Time Alt. Az. Time Alt. Az.
26 Sep 2.6 08:14:55 10° W 08:17:58 25° SW 08:17:58 25° SW visible
27 Sep 2.9 08:04:23 10° WSW 08:07:20 19° SSW 08:08:08 18° SSW visible
28 Sep 3.4 07:54:10 10° WSW 07:56:19 14° SSW 07:58:20 10° S visible
29 Sep 2.8 17:57:18 10° SSW 18:00:43 25° SSE 18:04:07 10° E visible
30 Sep 2.2 17:45:55 10° SW 17:49:40 34° SSE 17:53:25 10° E visible
01 Oct 1.6 17:34:37 10° SW 17:38:37 48° SSE 17:42:36 10° ENE visible
02 Oct 0.9 17:24:43 19° SW 17:27:34 70° SSE 17:31:40 10° ENE visible
03 Oct 0.6 17:14:53 36° WSW 17:16:31 82° NNW 17:20:38 10° ENE visible
04 Oct 0.8 17:05:01 54° WNW 17:05:28 58° NNW 17:09:32 10° NE visible
05 Oct 1.6 16:55:05 38° N 16:55:05 38° N 16:58:21 10° NE visible
